This is the latest recevied weather packets stored in our database for station/object NO9B. If no packets are shown the sender has not sent any weather packets the latest 10 day(s).
| Time | Temp. | Humidity | Pressure | Rain* | Wind** | Luminosity | Snow |
|---|---|---|---|---|---|---|---|
| 1788309282 | 26.67° C | 91% | 1014.7 hPa | 0 mm | - | 0 W/m² | - |
| 1788308977 | 26.67° C | 92% | 1014.6 hPa | 0 mm | - | 1 W/m² | - |
| 1788308672 | 26.67° C | 92% | 1014.8 hPa | 0 mm | - | 1 W/m² | - |
| 1788308372 | 26.67° C | 92% | 1014.6 hPa | 0 mm | - | 3 W/m² | - |
| 1788308067 | 26.67° C | 92% | 1014.6 hPa | 0 mm | - | 4 W/m² | - |
| 1788307762 | 26.67° C | 92% | 1014.7 hPa | 0 mm | - | 6 W/m² | - |
| 1788307457 | 26.67° C | 92% | 1014.7 hPa | 0 mm | - | 7 W/m² | - |
| 1788307152 | 26.67° C | 92% | 1014.7 hPa | 0 mm | - | 8 W/m² | - |
| 1788306847 | 26.67° C | 92% | 1014.5 hPa | 0 mm | - | 10 W/m² | - |
| 1788306542 | 26.67° C | 92% | 1014.6 hPa | 0 mm | - | 11 W/m² | - |
| 1788306242 | 26.67° C | 92% | 1014.6 hPa | 0 mm | - | 13 W/m² | - |
| 1788305936 | 26.67° C | 93% | 1014.8 hPa | 0 mm | - | 16 W/m² | - |
| 1788305632 | 26.67° C | 93% | 1014.7 hPa | 0 mm | - | 19 W/m² | - |
| 1788305329 | 26.67° C | 92% | 1014.5 hPa | 0 mm | - | 24 W/m² | - |
| 1788305028 | 26.67° C | 91% | 1014.4 hPa | 0 mm | - | 32 W/m² | - |
| 1788304724 | 26.67° C | 91% | 1014 hPa | 0 mm | - | 27 W/m² | - |
| 1788304421 | 26.67° C | 91% | 1013.8 hPa | 0 mm | - | 25 W/m² | - |
| 1788304117 | 26.67° C | 91% | 1013.8 hPa | 0 mm | - | 24 W/m² | - |
| 1788303816 | 26.67° C | 91% | 1014 hPa | 0 mm | - | 24 W/m² | - |
| 1788303512 | 26.67° C | 91% | 1014 hPa | 0 mm | - | 22 W/m² | - |
| 1788303211 | 26.67° C | 90% | 1014.5 hPa | 0 mm | - | 27 W/m² | - |
| 1788302906 | 26.67° C | 89% | 1014.6 hPa | 0 mm | - | 28 W/m² | - |
| 1788302603 | 26.67° C | 87% | 1014.8 hPa | 0 mm | - | 40 W/m² | - |
| 1788302299 | 26.67° C | 87% | 1014.7 hPa | 0 mm | - | 45 W/m² | - |
| 1788301994 | 26.67° C | 88% | 1015 hPa | 0 mm | - | 41 W/m² | - |
* Rain latest hour (hover to see other rain measurements)
** Current wind speed in m/s (hover to see current wind gust speed)